FW9444 Weather Reports


time (UTC)temp
C
wind
direction
speed
KPH
gust
KPH
rain 1hr
cm
rain 24hr
cm
rain mn
cm
humidity
%
barometer
mb
20260510204449 28 59 0.0 0.0 0.00 0.00 0.00 44 1012.2
20260510203946 28 12 0.0 0.0 0.00 0.00 0.00 42 1012.1
20260510203443 28 241 0.0 0.0 0.00 0.00 0.00 44 1012.3
20260510202938 28 52 0.0 0.0 0.00 0.00 0.00 48 1012.5
20260510202434 29 146 0.0 0.0 0.00 0.00 0.00 45 1012.6
20260510201931 28 254 0.0 0.0 0.00 0.00 0.00 45 1012.5
20260510201428 28 342 0.0 0.0 0.00 0.00 0.00 47 1012.4
20260510200924 28 260 0.0 0.0 0.00 0.00 0.00 48 1012.7
20260510200424 28 203 0.0 0.0 0.00 0.00 0.00 46 1012.8
20260510195918 29 259 0.0 0.0 0.00 0.00 0.00 50 1013.0
20260510195410 28 57 0.0 0.0 0.00 0.00 0.00 48 1013.0
20260510194904 28 48 0.0 0.0 0.00 0.00 0.00 48 1012.9
20260510194401 28 203 0.0 0.0 0.00 0.00 0.00 48 1013.0
20260510193857 27 85 0.0 0.0 0.00 0.00 0.00 52 1012.8
20260510193352 27 242 0.0 0.0 0.00 0.00 0.00 52 1012.9
20260510192847 26 359 0.0 0.0 0.00 0.00 0.00 53 1012.8
20260510192343 26 23 0.0 0.0 0.00 0.00 0.00 51 1012.9
20260510191839 27 310 0.0 0.0 0.00 0.00 0.00 55 1012.8
20260510191335 26 95 0.0 0.0 0.00 0.00 0.00 55 1012.7
20260510190833 25 78 0.0 0.0 0.00 0.00 0.00 58 1012.9
20260510190331 25 72 0.0 0.0 0.00 0.00 0.00 55 1013.0
20260510185826 25 66 0.0 0.0 0.00 0.00 0.00 56 1013.0
20260510185324 26 70 0.0 0.0 0.00 0.00 0.00 55 1013.1
20260510184816 26 57 3.2 3.2 0.00 0.00 0.00 52 1013.2
20260510184313 25 311 0.0 0.0 0.00 0.00 0.00 59 1013.4
20260510183813 25 180 0.0 0.0 0.00 0.00 0.00 59 1013.2
20260510183308 26 72 0.0 0.0 0.00 0.00 0.00 57 1013.5
20260510182804 27 78 0.0 0.0 0.00 0.00 0.00 56 1013.4
20260510182301 27 73 0.0 0.0 0.00 0.00 0.00 56 1013.4
20260510181757 26 294 0.0 0.0 0.00 0.00 0.00 54 1013.5
20260510181254 26 332 0.0 0.0 0.00 0.00 0.00 56 1013.4
20260510180750 26 299 0.0 0.0 0.00 0.00 0.00 58 1013.6
20260510180248 26 218 0.0 0.0 0.00 0.00 0.00 57 1013.6
20260510175745 26 187 0.0 0.0 0.00 0.00 0.00 65 1013.7
20260510175240 26 218 3.2 4.8 0.00 0.00 0.00 59 1013.7
20260510174737 25 271 0.0 0.0 0.00 0.00 0.00 62 1013.6
20260510174234 25 75 0.0 0.0 0.00 0.00 0.00 60 1013.7
20260510173731 26 5 0.0 0.0 0.00 0.00 0.00 61 1013.9
20260510173226 26 169 0.0 0.0 0.00 0.00 0.00 66 1013.7
20260510172722 26 202 0.0 0.0 0.00 0.00 0.00 63 1013.9
20260510172218 25 224 0.0 0.0 0.00 0.00 0.00 66 1014.0
20260510171715 25 318 6.4 9.7 0.00 0.00 0.00 67 1013.9
20260510171212 25 349 0.0 0.0 0.00 0.00 0.00 67 1013.9
20260510170709 26 235 0.0 0.0 0.00 0.00 0.00 68 1013.9
20260510170205 25 250 0.0 0.0 0.00 0.00 0.00 72 1013.8
20260510165702 24 248 0.0 0.0 0.00 0.00 0.00 71 1014.1
20260510165158 23 225 0.0 0.0 0.00 0.00 0.00 74 1013.9
20260510164655 24 189 0.0 0.0 0.00 0.00 0.00 76 1013.9
20260510164152 24 211 0.0 0.0 0.00 0.00 0.00 75 1014.1
20260510163647 24 257 0.0 0.0 0.00 0.00 0.00 75 1014.1
20260510163143 25 284 0.0 1.6 0.00 0.00 0.00 75 1014.0
20260510162637 24 225 0.0 0.0 0.00 0.00 0.00 78 1014.0
20260510162135 23 254 0.0 0.0 0.00 0.00 0.00 80 1014.3
20260510161630 23 247 0.0 0.0 0.00 0.00 0.00 81 1014.2
20260510161127 23 224 0.0 0.0 0.00 0.00 0.00 81 1014.2
20260510160624 23 298 0.0 0.0 0.00 0.00 0.00 80 1014.2
20260510160124 23 195 0.0 0.0 0.00 0.00 0.00 82 1014.0
20260510155621 22 202 0.0 0.0 0.00 0.00 0.00 83 1014.1
20260510155117 23 213 0.0 0.0 0.00 0.00 0.00 82 1014.0
20260510154612 23 202 0.0 0.0 0.00 0.00 0.00 84 1014.1
20260510154108 22 174 0.0 0.0 0.00 0.00 0.00 83 1013.9
20260510153603 22 228 0.0 0.0 0.00 0.00 0.00 86 1013.9
20260510153100 22 212 0.0 0.0 0.00 0.00 0.00 86 1013.9
20260510152557 22 170 0.0 0.0 0.00 0.00 0.00 86 1013.8
20260510152054 21 189 0.0 0.0 0.00 0.00 0.00 88 1014.0
20260510151550 21 183 0.0 0.0 0.00 0.00 0.00 88 1013.9
20260510151048 21 188 0.0 0.0 0.00 0.00 0.00 90 1014.1
20260510150548 21 223 0.0 0.0 0.00 0.00 0.00 90 1014.0
20260510150044 20 179 0.0 0.0 0.00 0.00 0.00 90 1013.8
20260510145541 20 182 0.0 0.0 0.00 0.00 0.00 93 1013.8
20260510145037 19 213 0.0 0.0 0.00 0.00 0.00 94 1013.8
20260510144534 19 199 0.0 0.0 0.00 0.00 0.00 95 1014.0
20260510144030 18 209 0.0 0.0 0.00 0.00 0.00 96 1013.9
20260510143525 18 195 0.0 0.0 0.00 0.00 0.00 97 1014.2
20260510143022 18 250 0.0 0.0 0.00 0.00 0.00 97 1014.0
20260510142519 18 224 0.0 0.0 0.00 0.00 0.00 97 1014.0
20260510142016 18 187 0.0 0.0 0.00 0.00 0.00 98 1014.0
20260510141512 18 199 0.0 0.0 0.00 0.00 0.00 98 1014.1
20260510141010 17 200 0.0 0.0 0.00 0.00 0.00 98 1014.0
20260510140506 17 215 0.0 0.0 0.00 0.00 0.00 98 1014.2
20260510140000 17 204 0.0 0.0 0.00 0.00 0.00 99 1014.2
20260510135455 17 227 0.0 0.0 0.00 0.00 0.00 98 1014.1
20260510134953 17 184 0.0 0.0 0.00 0.00 0.00 98 1013.9
20260510134450 17 226 0.0 0.0 0.00 0.00 0.00 99 1013.9
20260510133947 17 253 0.0 0.0 0.00 0.00 0.00 99 1013.7
20260510133442 17 255 0.0 0.0 0.00 0.00 0.00 99 1014.0
20260510132938 17 168 0.0 0.0 0.00 0.00 0.00 99 1013.8
20260510132436 17 174 0.0 0.0 0.00 0.00 0.00 99 1013.8
20260510131932 17 174 0.0 0.0 0.00 0.00 0.00 99 1013.8
20260510131430 16 184 0.0 0.0 0.00 0.00 0.00 99 1013.7
20260510130926 17 161 0.0 0.0 0.00 0.00 0.00 99 1013.7
20260510130423 16 160 0.0 0.0 0.00 0.00 0.00 99 1013.7
20260510125921 16 160 0.0 0.0 0.00 0.00 0.00 99 1013.5
20260510125416 17 162 0.0 0.0 0.00 0.00 0.00 99 1013.5
20260510124914 16 160 0.0 0.0 0.00 0.00 0.00 99 1013.5
20260510124410 16 174 0.0 0.0 0.00 0.00 0.00 99 1013.2
20260510123906 16 176 0.0 0.0 0.00 0.00 0.00 99 1013.2
20260510123402 16 176 0.0 0.0 0.00 0.00 0.00 99 1013.0
20260510122858 16 185 0.0 0.0 0.00 0.00 0.00 99 1013.2
20260510122354 16 173 0.0 0.0 0.00 0.00 0.00 99 1013.1
20260510121850 16 176 0.0 0.0 0.00 0.00 0.00 99 1013.1
20260510121348 16 176 0.0 0.0 0.00 0.00 0.00 99 1012.8
20260510120845 16 183 0.0 0.0 0.00 0.00 0.00 99 1012.9
20260510120343 16 171 0.0 0.0 0.00 0.00 0.00 99 1013.0
20260510115838 16 184 0.0 0.0 0.00 0.00 0.00 99 1012.9
20260510115335 16 183 0.0 0.0 0.00 0.00 0.00 99 1012.6
20260510114831 16 172 0.0 0.0 0.00 0.00 0.00 99 1012.7
20260510114328 16 172 0.0 0.0 0.00 0.00 0.00 99 1012.6
20260510113828 16 172 0.0 0.0 0.00 0.00 0.00 99 1012.6
20260510113325 15 181 0.0 0.0 0.00 0.00 0.00 98 1012.5
20260510112822 15 181 0.0 0.0 0.00 0.00 0.00 98 1012.5
20260510112319 15 181 0.0 0.0 0.00 0.00 0.00 98 1012.3
20260510111815 15 181 0.0 0.0 0.00 0.00 0.00 98 1012.2
20260510111311 15 170 0.0 0.0 0.00 0.00 0.00 98 1012.2
20260510110811 15 173 0.0 0.0 0.00 0.00 0.00 98 1012.1
20260510110309 15 165 0.0 0.0 0.00 0.00 0.00 98 1012.2
20260510105804 15 168 0.0 0.0 0.00 0.00 0.00 98 1011.9
20260510105259 15 170 0.0 0.0 0.00 0.00 0.00 98 1011.8
20260510104756 15 181 0.0 0.0 0.00 0.00 0.00 98 1011.8
20260510104253 15 171 0.0 0.0 0.00 0.00 0.00 98 1011.8
20260510103749 14 170 0.0 0.0 0.00 0.00 0.00 98 1011.6
20260510103246 14 172 0.0 0.0 0.00 0.00 0.00 98 1011.7
20260510102746 13 172 0.0 0.0 0.00 0.00 0.00 98 1011.6
20260510102242 13 163 0.0 0.0 0.00 0.00 0.00 98 1011.5
20260510101740 12 163 0.0 0.0 0.00 0.00 0.00 98 1011.6
20260510101238 12 163 0.0 0.0 0.00 0.00 0.00 98 1011.2
20260510100733 12 163 0.0 0.0 0.00 0.00 0.00 98 1011.3
20260510100232 12 163 0.0 0.0 0.00 0.00 0.00 98 1011.5
20260510095727 12 163 0.0 0.0 0.00 0.00 0.00 98 1011.1
20260510095222 12 163 0.0 0.0 0.00 0.00 0.00 98 1011.3
20260510094721 12 163 0.0 0.0 0.00 0.00 0.00 97 1011.1
20260510094217 12 163 0.0 0.0 0.00 0.00 0.00 97 1011.1
20260510093713 13 163 0.0 0.0 0.00 0.00 0.00 97 1010.8
20260510093210 13 163 0.0 0.0 0.00 0.00 0.00 97 1010.9
20260510092707 13 163 0.0 0.0 0.00 0.00 0.00 97 1010.9
20260510092203 13 163 0.0 0.0 0.00 0.00 0.00 97 1011.1
20260510091658 13 163 0.0 0.0 0.00 0.00 0.00 97 1010.8
20260510091155 13 163 0.0 0.0 0.00 0.00 0.00 97 1011.5
20260510090652 13 163 0.0 0.0 0.00 0.00 0.00 97 1011.3
20260510090148 13 163 0.0 0.0 0.00 0.00 0.00 97 1011.3
20260510085643 13 163 0.0 0.0 0.00 0.00 0.00 97 1011.2
20260510085139 13 163 0.0 0.0 0.00 0.00 0.00 97 1010.7
20260510084635 13 163 0.0 0.0 0.00 0.00 0.00 97 1010.8
20260510084132 13 163 0.0 0.0 0.00 0.00 0.00 97 1010.9
20260510083629 13 163 0.0 0.0 0.00 0.00 0.00 97 1010.8
20260510083125 13 163 0.0 0.0 0.00 0.00 0.00 97 1010.7
20260510082621 13 163 0.0 0.0 0.00 0.00 0.00 97 1010.6
20260510082117 13 163 0.0 0.0 0.00 0.00 0.00 97 1010.3
20260510081612 13 163 0.0 0.0 0.00 0.00 0.00 97 1010.4
20260510081108 13 163 0.0 0.0 0.00 0.00 0.00 97 1010.1
20260510080602 13 163 0.0 0.0 0.00 0.00 0.00 97 1010.2
20260510080059 13 163 0.0 0.0 0.00 0.00 0.00 97 1010.1
20260510075556 13 163 0.0 0.0 0.00 0.00 0.00 97 1010.3
20260510075053 13 163 0.0 0.0 0.00 0.00 0.00 97 1010.2
20260510074550 14 163 0.0 0.0 0.00 0.00 0.00 97 1010.1
20260510074045 14 163 0.0 0.0 0.00 0.00 0.00 97 1009.9
20260510073542 13 163 0.0 0.0 0.00 0.00 0.00 97 1010.0
20260510073039 13 163 0.0 0.0 0.00 0.00 0.00 96 1010.1
20260510072536 13 163 0.0 0.0 0.00 0.00 0.00 96 1010.3
20260510072031 14 163 0.0 0.0 0.00 0.00 0.00 96 1010.0
20260510071527 14 163 0.0 0.0 0.00 0.00 0.00 96 1010.1
20260510071026 14 163 0.0 0.0 0.00 0.00 0.00 96 1010.0
20260510070522 14 163 0.0 0.0 0.00 0.00 0.00 96 1010.3
20260510070019 14 163 0.0 0.0 0.00 0.00 0.00 96 1010.2
20260510065515 14 163 0.0 0.0 0.00 0.00 0.00 96 1010.1
20260510065011 15 163 0.0 0.0 0.00 0.00 0.00 96 1010.1
20260510064509 14 163 0.0 0.0 0.00 0.00 0.00 96 1010.0
20260510064005 15 163 0.0 0.0 0.00 0.00 0.00 96 1010.1
20260510063502 15 163 0.0 0.0 0.00 0.00 0.00 96 1010.2
20260510062959 15 163 0.0 0.0 0.00 0.00 0.00 96 1010.2
20260510062455 15 163 0.0 0.0 0.00 0.00 0.00 96 1010.2
20260510061950 15 163 0.0 0.0 0.00 0.00 0.00 96 1010.2
20260510061447 15 163 0.0 0.0 0.00 0.00 0.00 95 1010.4
20260510060943 15 163 0.0 0.0 0.00 0.00 0.00 95 1010.3
20260510060441 15 163 0.0 0.0 0.00 0.00 0.00 95 1010.3
20260510055936 15 163 0.0 0.0 0.00 0.00 0.00 95 1010.2
20260510055432 15 163 0.0 0.0 0.00 0.00 0.00 95 1010.1
20260510054930 15 163 0.0 0.0 0.00 0.00 0.00 95 1010.2
20260510054426 15 163 0.0 0.0 0.00 0.00 0.00 95 1010.3
20260510053921 15 163 0.0 0.0 0.00 0.00 0.00 95 1010.3
20260510053417 15 163 0.0 0.0 0.00 0.00 0.00 95 1010.6
20260510052913 15 163 0.0 0.0 0.00 0.00 0.00 95 1010.2
20260510052409 15 163 0.0 0.0 0.00 0.00 0.00 95 1010.5
20260510051905 15 163 0.0 0.0 0.00 0.00 0.00 95 1010.4
20260510051402 15 163 0.0 0.0 0.00 0.00 0.00 94 1010.3
20260510050858 15 163 0.0 0.0 0.00 0.00 0.00 94 1010.3
20260510050355 15 163 0.0 0.0 0.00 0.00 0.00 94 1010.2
20260510045852 15 163 0.0 0.0 0.00 0.00 0.00 94 1010.4
20260510045349 15 163 0.0 0.0 0.00 0.00 0.00 94 1010.3
20260510044846 16 163 0.0 0.0 0.00 0.00 0.00 94 1010.3
20260510044343 16 163 0.0 0.0 0.00 0.00 0.00 94 1010.4
20260510043839 16 163 0.0 0.0 0.00 0.00 0.00 94 1010.4
20260510043335 16 163 0.0 0.0 0.00 0.00 0.00 94 1010.4
20260510042834 16 163 0.0 0.0 0.00 0.00 0.00 94 1010.4
20260510042329 16 163 0.0 0.0 0.00 0.00 0.00 94 1010.4
20260510041825 16 163 0.0 0.0 0.00 0.00 0.00 93 1010.6
20260510041323 16 163 0.0 0.0 0.00 0.00 0.00 93 1010.6
20260510040820 16 163 0.0 0.0 0.00 0.00 0.00 93 1010.5
20260510040316 16 163 0.0 0.0 0.00 0.00 0.00 93 1010.5
20260510035812 16 163 0.0 0.0 0.00 0.00 0.00 92 1010.5
20260510035308 16 163 0.0 0.0 0.00 0.00 0.00 92 1010.5
20260510034804 16 163 0.0 0.0 0.00 0.00 0.00 92 1010.5
20260510034302 16 163 0.0 0.0 0.00 0.00 0.00 92 1010.5
20260510033758 17 163 0.0 0.0 0.00 0.00 0.00 92 1010.6
20260510033256 17 163 0.0 0.0 0.00 0.00 0.00 91 1010.6
20260510032751 17 163 0.0 0.0 0.00 0.00 0.00 91 1010.5
20260510032248 17 163 0.0 0.0 0.00 0.00 0.00 91 1010.5
20260510031743 17 163 0.0 0.0 0.00 0.00 0.00 90 1010.3
20260510031239 18 163 0.0 0.0 0.00 0.00 0.00 91 1010.5
20260510030738 18 163 0.0 0.0 0.00 0.00 0.00 90 1010.5
20260510030231 18 163 0.0 0.0 0.00 0.00 0.00 90 1010.3
20260510025728 18 169 0.0 0.0 0.00 0.00 0.00 90 1010.3
20260510025226 18 168 0.0 0.0 0.00 0.00 0.00 89 1010.3
20260510024722 18 190 0.0 0.0 0.00 0.00 0.00 89 1010.1
20260510024219 18 180 0.0 0.0 0.00 0.00 0.00 89 1010.1
20260510023714 19 180 0.0 0.0 0.00 0.00 0.00 88 1010.2
20260510023212 19 189 0.0 0.0 0.00 0.00 0.00 88 1010.1
20260510022708 19 165 0.0 0.0 0.00 0.00 0.00 88 1010.0
20260510022203 19 169 0.0 0.0 0.00 0.00 0.00 88 1009.9
20260510021658 19 202 0.0 0.0 0.00 0.00 0.00 88 1009.9
20260510021155 19 172 0.0 0.0 0.00 0.00 0.00 87 1009.7
20260510020650 19 168 0.0 0.0 0.00 0.00 0.00 86 1009.5
20260510020145 19 170 0.0 0.0 0.00 0.00 0.00 86 1009.5
20260510015641 20 169 0.0 0.0 0.00 0.00 0.00 85 1009.4
20260510015139 20 167 0.0 0.0 0.00 0.00 0.00 84 1009.2
20260510014638 20 160 0.0 0.0 0.00 0.00 0.00 84 1008.9
20260510014136 20 170 0.0 0.0 0.00 0.00 0.00 84 1009.1
20260510013631 20 178 0.0 0.0 0.00 0.00 0.00 83 1009.0
20260510013127 20 183 0.0 1.6 0.00 0.00 0.00 83 1008.8
20260510012626 20 169 0.0 0.0 0.00 0.00 0.00 83 1008.5
20260510012123 20 168 0.0 0.0 0.00 0.00 0.00 82 1008.6
20260510011623 20 157 0.0 0.0 0.00 0.00 0.00 82 1008.7
20260510011119 20 154 0.0 0.0 0.00 0.00 0.00 81 1008.8
20260510010615 20 156 0.0 0.0 0.00 0.00 0.00 81 1008.6
20260510010113 20 218 0.0 0.0 0.00 0.00 0.00 81 1008.6
20260510005608 21 171 0.0 0.0 0.00 0.00 0.00 80 1008.6
20260510005106 21 172 0.0 0.0 0.00 0.00 0.00 79 1008.2
20260510004603 21 180 0.0 0.0 0.00 0.00 0.00 79 1008.5
20260510004101 21 162 0.0 0.0 0.00 0.00 0.00 79 1008.3
20260510003558 21 162 0.0 0.0 0.00 0.00 0.00 78 1008.2
20260510003054 21 160 0.0 0.0 0.00 0.00 0.00 77 1007.9
20260510002548 22 170 0.0 0.0 0.00 0.00 0.00 77 1007.8
20260510002046 22 204 0.0 0.0 0.00 0.00 0.00 76 1007.8
20260510001543 22 152 0.0 0.0 0.00 0.00 0.00 76 1007.7
20260510001042 22 202 0.0 0.0 0.00 0.00 0.00 75 1007.7
20260510000536 22 172 0.0 0.0 0.00 0.00 0.00 74 1007.7
20260510000033 22 163 0.0 0.0 0.00 0.00 0.00 74 1007.7
20260509235530 22 163 0.0 0.0 0.00 0.00 0.00 73 1007.8
20260509235027 22 166 0.0 0.0 0.00 0.00 0.00 73 1007.7
20260509234523 22 168 0.0 0.0 0.00 0.00 0.00 73 1007.9
20260509234021 22 174 0.0 0.0 0.00 0.00 0.00 72 1007.5
20260509233518 23 160 0.0 0.0 0.00 0.00 0.00 71 1007.7
20260509233015 23 160 0.0 0.0 0.00 0.00 0.00 70 1007.7
20260509232512 23 178 0.0 0.0 0.00 0.00 0.00 68 1007.6
20260509232009 23 201 0.0 0.0 0.00 0.00 0.00 67 1007.7
20260509231505 23 25 0.0 0.0 0.00 0.00 0.00 65 1007.6
20260509231003 23 25 0.0 0.0 0.00 0.00 0.00 65 1007.6
20260509230459 23 25 0.0 0.0 0.00 0.00 0.00 64 1007.6
20260509225955 23 83 0.0 0.0 0.00 0.00 0.00 64 1007.7
20260509225452 23 26 0.0 0.0 0.00 0.00 0.00 63 1007.4
20260509224948 23 51 0.0 0.0 0.00 0.00 0.00 64 1007.6
20260509224443 24 78 0.0 0.0 0.00 0.00 0.00 63 1007.3
20260509223940 23 47 0.0 0.0 0.00 0.00 0.00 63 1007.3
20260509223437 24 196 0.0 0.0 0.00 0.00 0.00 64 1007.4
20260509222935 24 64 0.0 0.0 0.00 0.00 0.00 62 1007.4
20260509222430 25 220 0.0 0.0 0.00 0.00 0.00 62 1007.2
20260509221926 24 334 0.0 0.0 0.00 0.00 0.00 63 1007.2
20260509221423 25 232 0.0 1.6 0.00 0.00 0.00 62 1007.5
20260509220918 24 233 0.0 0.0 0.00 0.00 0.00 63 1007.3
20260509220415 24 225 0.0 0.0 0.00 0.00 0.00 62 1007.4
20260509215911 25 272 0.0 0.0 0.00 0.00 0.00 62 1007.2
20260509215406 25 196 0.0 0.0 0.00 0.00 0.00 62 1007.2
20260509214904 25 220 0.0 0.0 0.00 0.00 0.00 62 1007.1
20260509214401 25 195 0.0 0.0 0.00 0.00 0.00 62 1007.4
20260509213858 25 220 0.0 0.0 0.00 0.00 0.00 64 1007.1
20260509213353 25 231 0.0 0.0 0.00 0.00 0.00 62 1007.2
20260509212851 24 139 0.0 0.0 0.00 0.00 0.00 64 1007.1
20260509212349 24 316 0.0 0.0 0.00 0.00 0.00 65 1007.0
20260509211844 24 317 0.0 0.0 0.00 0.00 0.00 65 1007.1
20260509211340 24 70 0.0 0.0 0.00 0.00 0.00 63 1007.3
20260509210837 25 189 0.0 0.0 0.00 0.00 0.00 62 1007.2
20260509210335 24 59 0.0 0.0 0.00 0.00 0.00 63 1007.0
20260509205834 24 82 0.0 0.0 0.00 0.00 0.00 64 1007.4
20260509205329 25 284 0.0 0.0 0.00 0.00 0.00 64 1007.4
20260509204826 25 164 0.0 0.0 0.00 0.00 0.00 62 1007.5